GW1401 Weather Reports


Display with metric or nautical units.
time (UTC)temp
F
wind
direction
speed
MPH
gust
MPH
rain 1hr
in
rain 24hr
in
rain mn
in
humidity
%
barometer
mb
20260503213116 67 152 1.0 5.0 0.00 0.00 0.00 37 1018.9
20260503212614 67 135 0.0 11.0 0.00 0.00 0.00 37 1018.9
20260503212111 66 238 4.0 14.0 0.00 0.00 0.00 36 1019.1
20260503211609 66 212 2.0 7.0 0.00 0.00 0.00 37 1019.3
20260503211104 67 130 5.0 11.0 0.00 0.00 0.00 36 1019.4
20260503210601 68 174 3.0 6.0 0.00 0.00 0.00 35 1019.1
20260503210056 67 79 3.0 11.0 0.00 0.00 0.00 36 1018.9
20260503205553 66 125 2.0 9.0 0.00 0.00 0.00 37 1018.9
20260503205049 67 130 3.0 6.0 0.00 0.00 0.00 36 1018.8
20260503204547 66 193 4.0 6.0 0.00 0.00 0.00 36 1019.0
20260503204044 66 263 4.0 10.0 0.00 0.00 0.00 36 1019.4
20260503203541 66 155 5.0 7.0 0.00 0.00 0.00 35 1019.4
20260503203038 66 236 2.0 6.0 0.00 0.00 0.00 35 1019.6
20260503202536 66 137 4.0 8.0 0.00 0.00 0.00 35 1019.6
20260503202033 67 188 5.0 10.0 0.00 0.00 0.00 34 1019.6
20260503201531 67 170 2.0 7.0 0.00 0.00 0.00 34 1019.6
20260503201028 66 175 0.0 7.0 0.00 0.00 0.00 37 1019.8
20260503200524 66 158 0.0 6.0 0.00 0.00 0.00 37 1019.8
20260503200021 66 272 8.0 10.0 0.00 0.00 0.00 34 1020.1
20260503195518 66 147 2.0 7.0 0.00 0.00 0.00 37 1020.2
20260503195015 67 152 2.0 11.0 0.00 0.00 0.00 36 1020.0
20260503194513 65 174 1.0 5.0 0.00 0.00 0.00 39 1020.0
20260503194012 65 123 3.0 7.0 0.00 0.00 0.00 36 1020.3
20260503193509 66 132 2.0 9.0 0.00 0.00 0.00 38 1020.6
20260503193004 66 265 3.0 8.0 0.00 0.00 0.00 33 1021.0
20260503192500 65 152 2.0 13.0 0.00 0.00 0.00 36 1020.9
20260503191956 66 275 2.0 5.0 0.00 0.00 0.00 37 1020.9
20260503191454 65 156 1.0 5.0 0.00 0.00 0.00 37 1021.1
20260503190950 66 227 5.0 10.0 0.00 0.00 0.00 34 1021.2
20260503190447 66 294 2.0 3.0 0.00 0.00 0.00 38 1021.3
20260503185944 65 151 4.0 8.0 0.00 0.00 0.00 35 1021.2
20260503185441 66 283 8.0 11.0 0.00 0.00 0.00 36 1021.4
20260503184940 65 158 5.0 7.0 0.00 0.00 0.00 34 1021.5
20260503184437 64 209 1.0 6.0 0.00 0.00 0.00 38 1021.7
20260503183933 64 169 3.0 11.0 0.00 0.00 0.00 36 1021.6
20260503183430 65 99 4.0 6.0 0.00 0.00 0.00 33 1021.9
20260503182927 65 150 4.0 9.0 0.00 0.00 0.00 37 1021.9
20260503182426 65 169 3.0 7.0 0.00 0.00 0.00 38 1021.9
20260503181923 65 155 4.0 6.0 0.00 0.00 0.00 37 1022.1
20260503181420 65 123 1.0 6.0 0.00 0.00 0.00 40 1022.1
20260503180916 64 141 2.0 6.0 0.00 0.00 0.00 38 1022.3
20260503180414 63 252 6.0 10.0 0.00 0.00 0.00 37 1022.3
20260503175910 63 132 5.0 9.0 0.00 0.00 0.00 38 1022.2
20260503175409 63 144 5.0 9.0 0.00 0.00 0.00 37 1022.4
20260503174904 63 251 2.0 6.0 0.00 0.00 0.00 40 1022.2
20260503174402 63 264 4.0 8.0 0.00 0.00 0.00 37 1022.6
20260503173857 63 203 4.0 7.0 0.00 0.00 0.00 39 1022.6
20260503173353 62 122 4.0 7.0 0.00 0.00 0.00 39 1022.7
20260503172850 62 145 6.0 11.0 0.00 0.00 0.00 38 1022.8
20260503172348 62 118 3.0 11.0 0.00 0.00 0.00 39 1022.9
20260503171844 61 129 3.0 7.0 0.00 0.00 0.00 38 1023.1
20260503171341 62 76 3.0 6.0 0.00 0.00 0.00 40 1022.8
20260503170838 62 167 4.0 10.0 0.00 0.00 0.00 40 1023.2
20260503170334 62 123 2.0 8.0 0.00 0.00 0.00 41 1023.1
20260503150727 59 146 3.0 6.0 0.00 0.00 0.00 51 1024.5
20260503150223 58 187 2.0 7.0 0.00 0.00 0.00 50 1024.6
20260503140147 53 86 1.0 7.0 0.00 0.00 0.00 57 1024.5
20260503131117 48 125 1.0 2.0 0.00 0.00 0.00 72 1025.0
20260503130614 48 142 1.0 3.0 0.00 0.00 0.00 76 1024.9
20260503130112 46 139 1.0 3.0 0.00 0.00 0.00 78 1024.7
20260503110504 31 115 0.0 0.0 0.00 0.00 0.00 99 1024.0
20260503090350 32 115 0.0 0.0 0.00 0.00 0.00 99 1023.9
20260503081317 32 115 0.0 0.0 0.00 0.00 0.00 99 1023.3
20260503080814 32 115 0.0 0.0 0.00 0.00 0.00 99 1023.4
20260503080311 32 115 0.0 0.0 0.00 0.00 0.00 99 1023.4
20260503072748 32 115 0.0 0.0 0.00 0.00 0.00 99 1023.3
20260503072245 33 115 0.0 0.0 0.00 0.00 0.00 99 1023.5
20260503071741 33 115 0.0 0.0 0.00 0.00 0.00 99 1023.4
20260503071238 33 115 0.0 0.0 0.00 0.00 0.00 99 1023.3
20260503070734 33 115 0.0 0.0 0.00 0.00 0.00 99 1023.3
20260503070232 33 115 0.0 0.0 0.00 0.00 0.00 99 1023.4
20260503060157 34 115 0.0 0.0 0.00 0.00 0.00 99 1023.5
20260503054644 35 115 0.0 0.0 0.00 0.00 0.00 99 1023.5
20260503054141 35 115 0.0 0.0 0.00 0.00 0.00 99 1023.6
20260503053639 35 115 0.0 0.0 0.00 0.00 0.00 99 1023.6
20260503053138 35 115 0.0 0.0 0.00 0.00 0.00 99 1023.8
20260503052633 35 115 0.0 0.0 0.00 0.00 0.00 99 1023.8
20260503052130 35 115 0.0 0.0 0.00 0.00 0.00 99 1023.7
20260503051625 35 115 0.0 0.0 0.00 0.00 0.00 99 1023.7
20260503051123 35 115 0.0 0.0 0.00 0.00 0.00 98 1023.6
20260503050620 36 115 0.0 0.0 0.00 0.00 0.00 98 1023.6
20260503050116 36 115 0.0 0.0 0.00 0.00 0.00 98 1023.5
20260503045614 36 115 0.0 0.0 0.00 0.00 0.00 98 1023.4
20260503045111 36 115 0.0 0.0 0.00 0.00 0.00 98 1023.6
20260503044607 36 115 0.0 0.0 0.00 0.00 0.00 98 1023.6
20260503044105 37 111 0.0 0.0 0.00 0.00 0.00 98 1023.6
20260503043601 37 115 0.0 0.0 0.00 0.00 0.00 97 1023.4
20260503043058 37 115 0.0 0.0 0.00 0.00 0.00 97 1023.6
20260503042555 37 115 0.0 0.0 0.00 0.00 0.00 97 1023.5
20260503042051 37 115 0.0 0.0 0.00 0.00 0.00 97 1023.6
20260503041548 37 115 0.0 0.0 0.00 0.00 0.00 96 1023.4
20260503041046 37 115 0.0 0.0 0.00 0.00 0.00 96 1023.6
20260503040543 37 115 0.0 0.0 0.00 0.00 0.00 96 1023.7
20260503040040 37 115 0.0 0.0 0.00 0.00 0.00 96 1023.5
20260503035537 38 115 0.0 0.0 0.00 0.00 0.00 95 1023.5
20260503035034 38 115 0.0 0.0 0.00 0.00 0.00 95 1023.5
20260503034531 38 115 0.0 0.0 0.00 0.00 0.00 95 1023.4
20260503034029 38 115 0.0 0.0 0.00 0.00 0.00 94 1023.4
20260503033526 39 116 0.0 0.0 0.00 0.00 0.00 94 1023.6
20260503033023 39 116 0.0 0.0 0.00 0.00 0.00 94 1023.4
20260503032522 39 115 0.0 0.0 0.00 0.00 0.00 93 1023.4
20260503032019 39 116 0.0 0.0 0.00 0.00 0.00 92 1023.4
20260503031517 39 114 0.0 0.0 0.00 0.00 0.00 92 1023.5
20260503031014 39 112 0.0 0.0 0.00 0.00 0.00 91 1023.4
20260503030510 40 114 0.0 0.0 0.00 0.00 0.00 90 1023.1
20260503030007 40 114 0.0 0.0 0.00 0.00 0.00 90 1023.3
20260503025504 40 114 0.0 0.0 0.00 0.00 0.00 89 1023.5
20260503025001 41 113 0.0 0.0 0.00 0.00 0.00 88 1023.2
20260503024457 41 114 0.0 0.0 0.00 0.00 0.00 87 1023.2
20260503023955 41 114 0.0 0.0 0.00 0.00 0.00 85 1023.4
20260503023452 41 114 0.0 0.0 0.00 0.00 0.00 83 1023.2
20260503022949 42 114 0.0 0.0 0.00 0.00 0.00 83 1023.2
20260503022444 42 112 0.0 0.0 0.00 0.00 0.00 82 1022.9
20260503021940 43 112 0.0 0.0 0.00 0.00 0.00 81 1022.9
20260503021436 43 112 0.0 0.0 0.00 0.00 0.00 80 1022.8
20260503020934 44 112 0.0 0.0 0.00 0.00 0.00 78 1022.9
20260503020432 44 110 0.0 0.0 0.00 0.00 0.00 78 1022.7
20260503015927 44 112 0.0 0.0 0.00 0.00 0.00 78 1022.5
20260503015424 45 112 0.0 0.0 0.00 0.00 0.00 76 1022.4
20260503014920 46 112 0.0 0.0 0.00 0.00 0.00 75 1022.4
20260503014418 46 112 0.0 0.0 0.00 0.00 0.00 76 1022.3
20260503013916 46 101 0.0 0.0 0.00 0.00 0.00 76 1022.3
20260503013412 47 114 0.0 0.0 0.00 0.00 0.00 74 1022.2
20260503012909 47 111 0.0 0.0 0.00 0.00 0.00 74 1022.2
20260503012408 48 108 0.0 0.0 0.00 0.00 0.00 71 1022.1
20260503011903 48 110 0.0 0.0 0.00 0.00 0.00 72 1021.8
20260503011400 48 111 0.0 0.0 0.00 0.00 0.00 72 1021.8
20260503010857 48 114 0.0 1.0 0.00 0.00 0.00 73 1021.8
20260503010354 48 78 1.0 1.0 0.00 0.00 0.00 72 1021.8
20260503005851 48 115 0.0 1.0 0.00 0.00 0.00 74 1021.6
20260503005349 49 182 0.0 1.0 0.00 0.00 0.00 74 1021.7
20260503004844 49 153 0.0 0.0 0.00 0.00 0.00 71 1021.6
20260503004342 50 113 0.0 1.0 0.00 0.00 0.00 71 1021.6
20260503003839 50 115 0.0 0.0 0.00 0.00 0.00 67 1021.5
20260503003336 51 111 0.0 1.0 0.00 0.00 0.00 66 1021.5
20260503002833 52 115 0.0 0.0 0.00 0.00 0.00 66 1021.5
20260503002331 53 118 0.0 1.0 0.00 0.00 0.00 60 1021.4
20260503001827 53 121 0.0 0.0 0.00 0.00 0.00 57 1021.0
20260503001323 54 107 0.0 1.0 0.00 0.00 0.00 55 1021.1
20260503000820 54 118 0.0 1.0 0.00 0.00 0.00 53 1021.0
20260503000319 54 107 0.0 2.0 0.00 0.00 0.00 52 1021.0
20260502235815 55 129 0.0 2.0 0.00 0.00 0.00 53 1020.8
20260502235312 55 98 0.0 2.0 0.00 0.00 0.00 50 1021.0
20260502234809 55 128 1.0 2.0 0.00 0.00 0.00 51 1020.8
20260502234306 55 155 0.0 1.0 0.00 0.00 0.00 54 1020.7
20260502233802 56 121 0.0 2.0 0.00 0.00 0.00 55 1020.9
20260502233259 57 113 0.0 0.0 0.00 0.00 0.00 52 1020.7
20260502232755 57 120 0.0 1.0 0.00 0.00 0.00 50 1020.8
20260502232252 58 116 0.0 1.0 0.00 0.00 0.00 48 1020.7
20260502231748 57 160 1.0 2.0 0.00 0.00 0.00 48 1020.6
20260502231246 56 320 2.0 2.0 0.00 0.00 0.00 51 1020.8
20260502230745 56 197 1.0 2.0 0.00 0.00 0.00 52 1020.9
20260502230242 57 61 1.0 2.0 0.00 0.00 0.00 52 1020.9
20260502225739 58 139 1.0 7.0 0.00 0.00 0.00 49 1020.8
20260502225236 58 239 4.0 5.0 0.00 0.00 0.00 45 1020.8
20260502224732 58 136 1.0 2.0 0.00 0.00 0.00 48 1020.9
20260502224229 57 260 1.0 2.0 0.00 0.00 0.00 50 1021.0
20260502223726 59 159 1.0 5.0 0.00 0.00 0.00 49 1020.8
20260502223224 59 264 1.0 2.0 0.00 0.00 0.00 48 1020.7
20260502222721 59 183 2.0 6.0 0.00 0.00 0.00 45 1020.9
20260502222218 60 214 3.0 7.0 0.00 0.00 0.00 47 1021.0
20260502221714 60 76 1.0 2.0 0.00 0.00 0.00 48 1021.0
20260502221211 57 139 0.0 2.0 0.00 0.00 0.00 51 1020.7
20260502220707 57 110 0.0 1.0 0.00 0.00 0.00 55 1020.9
20260502220203 57 123 0.0 1.0 0.00 0.00 0.00 54 1020.7
20260502215701 58 112 1.0 3.0 0.00 0.00 0.00 51 1020.8
20260502215157 60 317 1.0 3.0 0.00 0.00 0.00 46 1020.6
20260502214655 60 120 0.0 1.0 0.00 0.00 0.00 45 1020.6
20260502214152 60 258 2.0 6.0 0.00 0.00 0.00 47 1020.6
20260502213649 59 91 2.0 3.0 0.00 0.00 0.00 47 1020.9